Location: Newark
(31.5350°N, 35.0986°E)
Time: 20:58:17
(UTC+00:00)

Vanguard 1 - Pass Details

Date: 26 September 2019
Orbit: 653 x 3830 km, 34.3° (Epoch: 14 October)

Event Time Altitude Azimuth Distance (km) Brightness Sun altitude
Rises 19:22:16 0° 208° (SSW) 5,963 14.0 -47.2°
Enters shadow 19:25:01 - 203° (SSW) 5,491 13.7 -47.7°
Reaches altitude 10° 19:26:01 10° 201° (SSW) 5,336 - -47.8°
Maximum altitude 19:41:57 42° 136° (SE) 4,409 - -50.4°
Exits shadow 20:01:45 12° 76° (ENE) 6,747 14.1 -53.2°
Drops below altitude 10° 20:02:43 10° 75° (ENE) 6,899 14.2 -53.3°
Sets 20:08:20 0° 70° (ENE) 7,794 14.5 -54.1°
